• In Schweiz
  • Länderverzeichnis
  • Für 7 Tage
  • Wassertemperatur
  • Satellitenkarten
  • Wetterkarte
  • Widgets
  • user-avatar
    Anmelden

    Stündliche Wetter Mbandaka

    Heute, 16 Januar, Dienstag

    Zeit Temperatur Niederschläge Wind Luftdruck Luftfeuchtigkeit
    00:00 +25°C° 0 mm 0 m/S 731 mmHg 53%
    01:00 +25°C° 0 mm 0 m/S 731 mmHg 53%
    02:00 +25°C° 0 mm 0 m/S 731 mmHg 54%
    03:00 +25°C° 0 mm 0 m/S 731 mmHg 55%
    04:00 +25°C° 0 mm 0 m/S 731 mmHg 55%
    05:00 +25°C° 0 mm 0 m/S 731 mmHg 56%
    06:00 +25°C° 0 mm 0 m/S 731 mmHg 57%
    07:00 +26°C° 0 mm 0 m/S 731 mmHg 58%
    08:00 +29°C° 0 mm 0 m/S 731 mmHg 49%
    09:00 +34°C° 0 mm 1 m/S 731 mmHg 39%
    10:00 +37°C° 0 mm 1 m/S 732 mmHg 30%
    11:00 +39°C° 0 mm 1 m/S 731 mmHg 27%
    12:00 +41°C° 0 mm 1 m/S 730 mmHg 24%
    13:00 +41°C° 0 mm 1 m/S 730 mmHg 24%
    14:00 +40°C° 0 mm 1 m/S 729 mmHg 25%
    15:00 +39°C° 0 mm 1 m/S 729 mmHg 25%
    16:00 +37°C° 0 mm 1 m/S 728 mmHg 26%
    17:00 +35°C° 0 mm 1 m/S 728 mmHg 31%
    18:00 +33°C° 0 mm 1 m/S 728 mmHg 36%
    19:00 +30°C° 0 mm 1 m/S 728 mmHg 41%
    20:00 +30°C° 0 mm 1 m/S 729 mmHg 44%
    21:00 +29°C° 0 mm 1 m/S 729 mmHg 47%
    22:00 +26°C° 0 mm 0 m/S 730 mmHg 49%
    23:00 +26°C° 0 mm 0 m/S 730 mmHg 51%

    Morgen, 17 Januar, Mittwoch

    Zeit Temperatur Niederschläge Wind Luftdruck Luftfeuchtigkeit
    00:00 +25°C° 0 mm 0 m/S 729 mmHg 53%
    01:00 +25°C° 0 mm 0 m/S 729 mmHg 55%
    02:00 +24°C° 0 mm 0 m/S 729 mmHg 56%
    03:00 +24°C° 0 mm 0 m/S 729 mmHg 58%
    04:00 +24°C° 0 mm 0 m/S 729 mmHg 59%
    05:00 +24°C° 0 mm 0 m/S 729 mmHg 59%
    06:00 +25°C° 0 mm 0 m/S 730 mmHg 58%
    07:00 +27°C° 0 mm 1 m/S 730 mmHg 57%
    08:00 +30°C° 0 mm 1 m/S 730 mmHg 50%
    09:00 +33°C° 0 mm 1 m/S 731 mmHg 42%
    10:00 +36°C° 0 mm 2 m/S 731 mmHg 35%
    11:00 +38°C° 0 mm 2 m/S 730 mmHg 31%
    12:00 +40°C° 0 mm 2 m/S 729 mmHg 27%
    13:00 +41°C° 0 mm 2 m/S 729 mmHg 23%
    14:00 +40°C° 0 mm 1 m/S 728 mmHg 25%
    15:00 +39°C° 0 mm 1 m/S 727 mmHg 28%
    16:00 +36°C° 0 mm 1 m/S 726 mmHg 31%
    17:00 +35°C° 0 mm 1 m/S 727 mmHg 35%
    18:00 +33°C° 0 mm 1 m/S 727 mmHg 40%
    19:00 +31°C° 0 mm 1 m/S 727 mmHg 44%
    20:00 +30°C° 0 mm 1 m/S 728 mmHg 47%
    21:00 +29°C° 0 mm 1 m/S 729 mmHg 50%
    22:00 +29°C° 0 mm 1 m/S 729 mmHg 53%
    23:00 +28°C° 0 mm 1 m/S 729 mmHg 56%

    übermorgen, 18 Januar, Donnerstag

    Zeit Temperatur Niederschläge Wind Luftdruck Luftfeuchtigkeit
    00:00 +27°C° 0 mm 1 m/S 729 mmHg 58%
    01:00 +27°C° 0 mm 1 m/S 729 mmHg 61%
    02:00 +27°C° 0 mm 1 m/S 729 mmHg 65%
    03:00 +26°C° 0 mm 2 m/S 729 mmHg 69%
    04:00 +26°C° 0 mm 2 m/S 729 mmHg 73%
    05:00 +26°C° 0 mm 2 m/S 730 mmHg 76%
    06:00 +26°C° 0 mm 1 m/S 730 mmHg 78%
    07:00 +26°C° 0 mm 1 m/S 731 mmHg 80%
    08:00 +29°C° 0 mm 2 m/S 731 mmHg 69%
    09:00 +31°C° 0 mm 2 m/S 732 mmHg 57%
    10:00 +35°C° 0 mm 2 m/S 732 mmHg 46%
    11:00 +36°C° 0 mm 2 m/S 731 mmHg 41%
    12:00 +38°C° 0 mm 2 m/S 730 mmHg 36%
    13:00 +39°C° 0 mm 2 m/S 729 mmHg 30%
    14:00 +38°C° 0 mm 2 m/S 729 mmHg 34%
    15:00 +36°C° 0 mm 1 m/S 728 mmHg 38%
    16:00 +34°C° 0 mm 1 m/S 728 mmHg 42%
    17:00 +33°C° 0 mm 1 m/S 728 mmHg 45%
    18:00 +32°C° 0 mm 1 m/S 728 mmHg 49%
    19:00 +28°C° 0 mm 0 m/S 729 mmHg 53%
    20:00 +28°C° 0 mm 0 m/S 729 mmHg 54%
    21:00 +29°C° 0 mm 1 m/S 729 mmHg 56%
    22:00 +28°C° 0 mm 1 m/S 730 mmHg 58%
    23:00 +28°C° 0 mm 1 m/S 729 mmHg 59%

    19 Januar, Freitag

    Zeit Temperatur Niederschläge Wind Luftdruck Luftfeuchtigkeit
    00:00 +28°C° 0 mm 1 m/S 729 mmHg 60%
    01:00 +27°C° 0 mm 1 m/S 729 mmHg 61%
    02:00 +27°C° 0 mm 1 m/S 729 mmHg 64%
    03:00 +26°C° 0 mm 2 m/S 729 mmHg 67%
    04:00 +26°C° 0 mm 2 m/S 729 mmHg 69%
    05:00 +26°C° 0 mm 2 m/S 730 mmHg 72%
    06:00 +26°C° 0 mm 2 m/S 730 mmHg 74%
    07:00 +26°C° 0 mm 2 m/S 731 mmHg 76%
    08:00 +28°C° 0 mm 2 m/S 731 mmHg 68%
    09:00 +30°C° 0 mm 2 m/S 732 mmHg 59%
    10:00 +32°C° 0 mm 2 m/S 732 mmHg 51%
    11:00 +34°C° 0 mm 2 m/S 731 mmHg 48%
    12:00 +35°C° 0 mm 2 m/S 730 mmHg 45%
    13:00 +36°C° 0 mm 2 m/S 730 mmHg 42%
    14:00 +36°C° 0 mm 2 m/S 729 mmHg 42%
    15:00 +35°C° 0 mm 2 m/S 729 mmHg 42%
    16:00 +34°C° 0 mm 1 m/S 728 mmHg 42%
    17:00 +32°C° 0 mm 1 m/S 729 mmHg 48%
    18:00 +31°C° 0 mm 1 m/S 729 mmHg 54%
    19:00 +29°C° 0 mm 1 m/S 729 mmHg 60%
    20:00 +28°C° 0 mm 1 m/S 730 mmHg 62%
    21:00 +28°C° 0 mm 1 m/S 730 mmHg 65%
    22:00 +27°C° 0 mm 1 m/S 731 mmHg 68%
    23:00 +27°C° 0 mm 1 m/S 730 mmHg 70%

    20 Januar, Samstag

    Zeit Temperatur Niederschläge Wind Luftdruck Luftfeuchtigkeit
    00:00 +26°C° 0 mm 1 m/S 730 mmHg 72%
    01:00 +25°C° 0 mm 1 m/S 729 mmHg 75%
    02:00 +25°C° 0 mm 1 m/S 729 mmHg 76%
    03:00 +25°C° 0 mm 1 m/S 729 mmHg 77%
    04:00 +24°C° 0 mm 1 m/S 729 mmHg 79%
    05:00 +25°C° 0 mm 1 m/S 730 mmHg 76%
    06:00 +26°C° 0 mm 1 m/S 730 mmHg 74%
    07:00 +26°C° 0 mm 1 m/S 731 mmHg 71%
    08:00 +29°C° 0 mm 2 m/S 731 mmHg 61%
    09:00 +32°C° 0 mm 2 m/S 731 mmHg 51%
    10:00 +36°C° 0 mm 2 m/S 731 mmHg 41%
    11:00 +37°C° 0 mm 1 m/S 730 mmHg 35%
    12:00 +40°C° 0 mm 1 m/S 729 mmHg 29%
    13:00 +42°C° 0 mm 1 m/S 729 mmHg 24%
    14:00 +40°C° 0 mm 1 m/S 728 mmHg 27%
    15:00 +35°C° 0 mm 0 m/S 728 mmHg 30%
    16:00 +33°C° 0 mm 0 m/S 727 mmHg 33%
    17:00 +32°C° 0 mm 0 m/S 728 mmHg 36%
    18:00 +31°C° 0 mm 0 m/S 728 mmHg 38%
    19:00 +29°C° 0 mm 0 m/S 728 mmHg 41%
    20:00 +28°C° 0 mm 0 m/S 729 mmHg 43%
    21:00 +28°C° 0 mm 0 m/S 729 mmHg 46%
    22:00 +27°C° 0 mm 0 m/S 730 mmHg 48%
    23:00 +26°C° 0 mm 0 m/S 729 mmHg 50%

    21 Januar, Sonntag

    Zeit Temperatur Niederschläge Wind Luftdruck Luftfeuchtigkeit
    00:00 +25°C° 0 mm 0 m/S 729 mmHg 51%
    01:00 +25°C° 0 mm 0 m/S 729 mmHg 53%
    02:00 +24°C° 0 mm 0 m/S 729 mmHg 55%
    03:00 +26°C° 0 mm 1 m/S 729 mmHg 57%
    04:00 +26°C° 0 mm 1 m/S 729 mmHg 58%
    05:00 +26°C° 0 mm 1 m/S 730 mmHg 60%
    06:00 +26°C° 0 mm 1 m/S 730 mmHg 61%
    07:00 +26°C° 0 mm 2 m/S 731 mmHg 63%
    08:00 +29°C° 0 mm 2 m/S 731 mmHg 55%
    09:00 +32°C° 0 mm 2 m/S 732 mmHg 48%
    10:00 +36°C° 0 mm 2 m/S 732 mmHg 40%
    11:00 +36°C° 0 mm 1 m/S 731 mmHg 37%
    12:00 +39°C° 0 mm 1 m/S 730 mmHg 33%
    13:00 +40°C° 0 mm 1 m/S 729 mmHg 29%
    14:00 +40°C° 0 mm 1 m/S 728 mmHg 30%
    15:00 +39°C° 0 mm 1 m/S 728 mmHg 31%
    16:00 +37°C° 0 mm 1 m/S 727 mmHg 33%
    17:00 +35°C° 0 mm 1 m/S 728 mmHg 38%
    18:00 +31°C° 0 mm 0 m/S 728 mmHg 44%
    19:00 +28°C° 0 mm 0 m/S 728 mmHg 49%
    20:00 +28°C° 0 mm 0 m/S 728 mmHg 52%
    21:00 +27°C° 0 mm 0 m/S 729 mmHg 54%
    22:00 +26°C° 0 mm 0 m/S 729 mmHg 57%
    23:00 +26°C° 0 mm 0 m/S 729 mmHg 59%
    Mehr zeigen